Vertical_Velocity
-1 1 1 -0 6 8 5 3 -3 -2 -6 -6 -7 -1 -5 6 8 -3 -1 0 3 2 1 1 -1 0 0 1 0 -1 -1 -2 -1 -1 -3 1 -2 -1
-0 1 1 1 3 -1 3 1 0 3 0 -7 -9 -6 -1 -1 6 7 4 1 -1 1 -0 -0 -1 0 0 1 -0 -1 0 -1 -2 -1 -2 0 -1 -2
-3 1 2 5 2 -1 -1 4 -0 8 3 2 1 -1 -2 -4 -1 -4 3 4 3 -0 -1 -2 -1 1 1 0 -0 -0 -1 -0 -1 -1 0 0 -0 0
2 6 7 6 7 3 8 -8 5 0 12 4 -3 -1 -9 -2 1 2 -5 -1 9 4 3 -1 -1 -1 -0 0 -0 -0 -1 -0 -2 -0 0 -0 1 -1
0 2 -2 -2 -2 1 2 3 -8 7 3 6 2 -1 -3 2 -8 7 1 -2 2 6 4 1 0 -1 0 -3 1 -1 -2 -3 -1 -1 0 -1 -3 -1
-1 -1 -1 -1 3 4 -0 -3 8 -3 7 5 3 3 1 6 13 -8 4 -4 -4 2 4 -1 1 0 -1 3 -5 -2 3 -1 -2 -1 3 2 -2 -0
-2 -4 -4 -2 1 2 3 6 4 10 12 3 7 6 -1 -6 -13 2 -4 10 6 -2 0 -3 1 -2 -0 2 -1 -2 1 -3 -2 -1 -1 -2 5 -3
-1 -1 -0 2 0 -0 3 6 -2 4 3 -5 5 -3 -2 -3 8 -10 5 3 -6 -7 7 -8 5 -3 2 -1 1 -0 0 0 -1 -3 -1 3 -0 -4
-2 -1 1 -1 -2 2 2 4 11 14 -5 1 -2 -8 -2 -16 3 -6 3 2 4 2 -1 2 -3 -5 3 -0 -2 2 2 -2 -1 0 -1 -2 -2 -3
-2 1 4 1 -3 -0 1 1 -3 12 4 8 1 -4 4 17 10 2 14 2 14 1 5 -3 -2 -1 2 -2 -2 2 -2 -0 2 1 -0 1 -1 -2
-2 4 -0 -3 -3 1 7 2 -1 -2 5 9 6 9 7 11 12 10 -1 -3 5 -6 -5 3 -2 -0 -3 -1 0 -3 -1 -0 2 2 -0 -1 -0 -1
1 1 -5 -3 -3 -0 -3 5 -2 -10 4 -0 0 1 8 6 5 3 14 -7 1 6 -9 1 0 4 -0 -2 -1 1 -1 0 1 -1 0 -2 2 -2
0 0 -1 -2 5 -1 2 1 4 14 12 9 8 6 4 3 8 3 7 -6 1 -1 -2 5 -3 -0 2 0 -0 -0 -2 -1 -3 2 -0 1 -0 3
-3 -1 -5 7 -0 1 2 5 1 8 6 5 8 2 -1 5 -2 7 4 5 5 12 4 -0 1 1 2 1 -2 -3 -2 -2 -0 3 -1 1 -2 3
-2 -0 0 2 3 3 -2 3 1 -5 1 4 -1 1 1 -4 1 12 6 -1 6 2 5 1 1 3 -4 -8 -5 -2 -0 3 -0 1 0 -3 1 -0
-2 1 2 0 6 7 -1 2 -4 1 3 4 5 1 3 -1 4 8 2 -0 9 0 0 -0 -10 -6 0 -4 -6 -1 1 1 1 -2 1 -5 -4 2
-3 -0 -1 1 3 3 -1 -2 -1 -1 -3 -2 1 6 5 5 5 6 5 5 -1 -4 -4 -5 -1 1 -2 -3 -3 1 1 -3 6 0 2 -6 -6 3
-2 -0 -5 0 1 2 3 3 5 2 4 2 1 1 5 4 0 1 3 -0 -4 -2 -0 0 1 -3 -3 -2 -4 -1 0 2 -0 -1 -2 2 -9 -6
-0 1 -0 2 2 0 1 1 -1 -1 2 5 4 1 1 4 2 -1 -2 1 1 -1 -1 -1 -4 -0 -2 -3 0 1 1 -1 -3 -4 2 2 -2 -8
-2 0 -0 1 0 1 0 1 2 1 1 4 3 2 4 0 -1 -1 -1 -2 -1 -1 -4 -1 -1 -1 0 -2 -2 1 -4 -2 -1 -6 -6 1 5 -2
0 -2 -1 -0 -0 1 1 2 2 -0 1 3 3 1 1 2 0 -0 1 1 -0 -2 -1 0 2 -2 -4 -2 -2 -3 2 1 1 -3 -2 -3 -6 -11
-1 -1 -0 0 -1 1 -0 1 5 3 0 2 2 1 2 1 -0 -1 -2 -1 -1 0 2 -1 -1 -1 -2 -3 -3 -4 -0 5 8 0 5 7 6 -6
1 -1 -1 -2 -0 1 1 0 1 1 2 0 1 1 -2 -2 -1 1 -0 0 -2 1 -3 -3 -2 -3 2 -2 -2 -1 -2 -3 -8 -8 2 9 -0 1
Height
1489 1493 1497 1500 1503 1507 1509 1513 1515 1516 1516 1517 1521 1523 1525 1529 1529 1532 1537 1541 1543 1545 1548 1550 1550 1551 1552 1551 1551 1551 1551 1551 1550 1548 1547 1545 1544 1542
1484 1487 1490 1494 1496 1499 1502 1506 1508 1509 1510 1512 1515 1518 1520 1522 1523 1525 1529 1534 1537 1539 1541 1544 1545 1546 1547 1547 1546 1547 1546 1546 1545 1544 1543 1541 1539 1539
1479 1482 1484 1486 1489 1492 1495 1498 1500 1502 1505 1506 1508 1511 1514 1516 1517 1519 1523 1526 1528 1531 1533 1536 1539 1541 1541 1542 1542 1542 1541 1541 1540 1539 1538 1536 1535 1534
1472 1475 1476 1479 1481 1485 1486 1489 1492 1495 1497 1499 1500 1502 1506 1509 1511 1513 1516 1521 1522 1524 1526 1528 1532 1535 1536 1537 1537 1536 1536 1536 1535 1534 1533 1531 1530 1529
1464 1466 1469 1471 1473 1476 1479 1480 1482 1485 1489 1491 1491 1494 1498 1501 1504 1506 1508 1512 1517 1519 1519 1522 1525 1527 1529 1531 1531 1530 1531 1531 1530 1529 1527 1526 1525 1523
1455 1457 1460 1462 1465 1467 1469 1471 1475 1474 1479 1482 1483 1487 1490 1493 1495 1498 1501 1503 1507 1510 1513 1515 1517 1520 1524 1523 1525 1526 1525 1524 1524 1524 1522 1520 1518 1517
1445 1447 1450 1452 1455 1457 1460 1461 1464 1465 1467 1468 1472 1475 1478 1482 1486 1491 1494 1497 1497 1500 1507 1508 1509 1514 1515 1517 1518 1519 1519 1518 1518 1518 1517 1514 1513 1511
1437 1438 1439 1442 1443 1445 1447 1451 1452 1454 1454 1461 1461 1463 1466 1471 1479 1482 1485 1487 1489 1492 1495 1500 1502 1505 1509 1510 1512 1513 1513 1511 1511 1510 1509 1509 1507 1506
1427 1428 1428 1430 1432 1433 1436 1438 1441 1442 1444 1447 1448 1451 1457 1462 1470 1473 1475 1478 1479 1483 1487 1490 1494 1498 1500 1503 1506 1507 1506 1505 1504 1504 1502 1502 1501 1500
1418 1418 1418 1419 1422 1423 1425 1426 1428 1430 1433 1436 1438 1443 1447 1452 1459 1465 1467 1471 1476 1478 1482 1482 1486 1490 1493 1496 1499 1499 1499 1499 1498 1497 1496 1496 1495 1494
1409 1410 1410 1411 1413 1415 1416 1417 1418 1419 1424 1428 1431 1435 1440 1446 1451 1452 1456 1463 1470 1469 1473 1475 1479 1482 1486 1489 1491 1491 1493 1493 1492 1491 1490 1490 1489 1486
1401 1401 1403 1404 1407 1408 1408 1410 1410 1412 1417 1421 1427 1431 1434 1439 1443 1448 1451 1454 1460 1461 1466 1471 1473 1478 1480 1481 1483 1485 1487 1487 1486 1485 1484 1484 1483 1479
1395 1395 1396 1399 1400 1402 1403 1404 1405 1408 1411 1415 1419 1425 1429 1432 1436 1441 1445 1448 1453 1454 1457 1463 1466 1472 1474 1475 1478 1479 1480 1481 1481 1479 1478 1478 1476 1473
1389 1390 1391 1393 1395 1397 1398 1400 1401 1404 1407 1411 1415 1418 1423 1425 1430 1434 1438 1442 1448 1452 1454 1458 1462 1467 1467 1470 1472 1474 1475 1475 1474 1473 1472 1470 1470 1466
1385 1385 1386 1388 1390 1393 1395 1397 1399 1403 1405 1407 1410 1414 1418 1422 1426 1429 1433 1439 1442 1446 1450 1454 1459 1460 1461 1463 1466 1468 1470 1469 1468 1466 1465 1465 1462 1461
1381 1380 1381 1384 1387 1389 1391 1392 1395 1398 1402 1404 1406 1410 1415 1420 1425 1427 1429 1434 1438 1440 1446 1449 1452 1456 1456 1458 1461 1463 1465 1463 1461 1460 1458 1456 1457 1455
1377 1377 1377 1380 1383 1384 1386 1388 1391 1394 1396 1399 1403 1407 1411 1416 1420 1424 1428 1431 1434 1439 1443 1446 1449 1451 1452 1453 1456 1458 1459 1458 1455 1453 1451 1448 1451 1447
1375 1374 1376 1377 1379 1380 1381 1383 1386 1390 1393 1396 1400 1405 1409 1412 1418 1423 1427 1430 1434 1437 1439 1442 1444 1445 1447 1450 1452 1453 1453 1451 1449 1448 1446 1443 1438 1441
1374 1374 1375 1377 1377 1379 1381 1383 1386 1389 1394 1397 1400 1405 1410 1415 1418 1421 1425 1428 1431 1433 1436 1439 1440 1442 1443 1445 1448 1447 1447 1445 1443 1442 1441 1437 1432 1432
1373 1374 1375 1377 1378 1380 1382 1384 1387 1391 1395 1398 1401 1405 1410 1413 1416 1419 1423 1426 1429 1431 1434 1436 1438 1440 1441 1442 1442 1443 1441 1439 1438 1435 1433 1429 1426 1423
1372 1373 1375 1376 1378 1381 1383 1385 1388 1391 1395 1398 1402 1406 1409 1412 1415 1418 1422 1424 1427 1429 1432 1434 1436 1436 1437 1438 1437 1437 1437 1436 1433 1429 1425 1420 1416 1412
1371 1372 1374 1375 1378 1380 1382 1385 1388 1391 1395 1399 1402 1405 1408 1411 1414 1417 1420 1423 1425 1428 1430 1431 1432 1433 1434 1433 1433 1432 1431 1430 1427 1425 1423 1419 1414 1406
1371 1372 1373 1375 1378 1380 1382 1385 1388 1392 1395 1398 1402 1405 1408 1410 1413 1417 1419 1422 1424 1426 1427 1429 1429 1430 1429 1429 1429 1427 1425 1423 1420 1417 1416 1414 1410 1405